Binghamton, NY

8:03 PM EST on December 14, 2019 (GMT -0500)
Binghamton Regional-Link

Weather History for KBGM - November, 2019

Change the Weather History Date:

Tuesday, November 12, 2019

  Actual Average Record
Temperature  
Mean Temperature 20 °F 40 °F  
Max Temperature 29 °F 47 °F 65 °F (1964)
Min Temperature 12 °F 33 °F 17 °F (1976)
Degree Days  
Heating Degree Days 44 25  
Month to date heating degree days 375 282  
Since 1 July heating degree days 987 1054  
Cooling Degree Days 0 0  
Month to date cooling degree days 0 0  
Year to date cooling degree days 389 381  
Moisture  
Dew Point 17 °F    
Average Humidity 85    
Maximum Humidity 100    
Minimum Humidity 61    
Precipitation  
Precipitation 0.29 in 0.10 in 1.04 in (1974)
Month to date precipitation 0.81 1.30  
Year to date precipitation 39.32 34.47  
Snow  
Snow 1.50 in 0.20 in 8.90 in (1968)
Month to date snowfall 3.5 1.4  
Since 1 July snowfall 3.5 2.4  
Since 1 September snowfall 3.5 2.4  
Snow Depth 1.00 in    
Sea Level Pressure  
Sea Level Pressure 29.91 in    
Wind  
Wind Speed 10 mph ()    
Max Wind Speed 22 mph    
Max Gust Speed 31 mph    
Visibility 4.5 miles    
Events Fog , Rain , Snow    
T = Trace of Precipitation, MM = Missing Value Source: Averaged Metar Reports

Daily Weather History Graph

Daily Weather History Graph

Search for Another Location

Airport or City:

Astronomy

Nov. 12, 2019 Rise Set
Actual Time 6:50 AM EST 4:45 PM EST
Civil Twilight 6:20 AM EST 5:15 PM EST
Nautical Twilight 5:46 AM EST 5:48 PM EST
Astronomical Twilight 5:13 AM EST 6:21 PM EST
Moon 5:11 PM EST (11/12) 6:38 AM EST (11/12)
Length of Visible Light 10h 54m
Length of Day
9h 54m
Full, 100% of the Moon is Illuminated
Nov 12
Full
Nov 19
Last Quarter
Nov 26
New
Dec 4
First Quarter
Dec 12
Full

Hourly Weather History & Observations

Time (EST) Temp. Windchill Dew Point Humidity Pressure Visibility Wind Dir Wind Speed Gust Speed Precip Events Conditions
12:05 AM 28.9 °F 22.8 °F 28.0 °F 96% 29.74 in 0.2 mi NNW 5.8 mph - N/A Fog Light Freezing Fog
12:53 AM 28.9 °F 22.8 °F 28.0 °F 96% 29.77 in 0.2 mi NNW 5.8 mph - N/A Fog Light Freezing Fog
1:03 AM 28.9 °F 21.1 °F 28.0 °F 96% 29.73 in 0.2 mi NW 8.1 mph - 0.00 in Fog , Rain Light Freezing Rain
1:19 AM 28.0 °F 18.6 °F 27.0 °F 96% 29.73 in 0.2 mi NW 10.4 mph - 0.00 in Fog , Rain Light Freezing Rain
1:27 AM 28.0 °F 18.1 °F 28.0 °F 100% 29.74 in 0.8 mi NW 11.5 mph - 0.01 in Rain Light Freezing Rain
1:34 AM 28.0 °F 17.5 °F 27.0 °F 96% 29.74 in 2.0 mi NW 12.7 mph - 0.02 in Rain Light Freezing Rain
1:41 AM 28.0 °F 20.8 °F 27.0 °F 96% 29.74 in 5.0 mi NW 6.9 mph - 0.02 in Rain Light Freezing Rain
1:53 AM 28.0 °F 18.1 °F 27.0 °F 96% 29.79 in 5.0 mi NNW 11.5 mph - 0.04 in Rain Light Freezing Rain
2:16 AM 28.0 °F 20.0 °F 27.0 °F 96% 29.74 in 3.0 mi NW 8.1 mph - 0.03 in Rain Light Freezing Rain
2:23 AM 28.0 °F 20.0 °F 27.0 °F 96% 29.75 in 3.0 mi WNW 8.1 mph - 0.04 in Rain Light Freezing Rain
2:46 AM 28.0 °F 20.0 °F 27.0 °F 96% 29.74 in 6.0 mi WNW 8.1 mph - 0.07 in Rain Light Freezing Rain
2:53 AM 27.0 °F 18.0 °F 26.1 °F 96% 29.79 in 5.0 mi WNW 9.2 mph - 0.07 in Snow Light Snow
2:58 AM 27.0 °F 16.7 °F 26.1 °F 96% 29.74 in 2.5 mi NW 11.5 mph - 0.01 in Snow Light Snow
3:07 AM 27.0 °F 18.0 °F 26.1 °F 96% 29.74 in 1.0 mi WNW 9.2 mph - 0.02 in Snow Light Snow
3:50 AM 24.8 °F 14.0 °F 23.0 °F 93% 29.74 in 0.8 mi WNW 11.5 mph - 0.06 in Snow Light Snow
3:53 AM 25.0 °F 15.5 °F 23.0 °F 92% 29.81 in 0.8 mi NW 9.2 mph - 0.07 in Snow Light Snow
4:44 AM 23.0 °F 10.1 °F 21.0 °F 92% 29.77 in 0.8 mi NW 15.0 mph 23.0 mph 0.05 in Snow Light Snow
4:53 AM 21.9 °F 7.8 °F 19.9 °F 92% 29.83 in 1.0 mi NNW 17.3 mph - 0.05 in Snow Light Snow
5:14 AM 21.0 °F 8.6 °F 19.0 °F 92% 29.79 in 1.2 mi NW 12.7 mph - 0.01 in Snow Light Snow
5:39 AM 19.9 °F 7.9 °F 18.0 °F 92% 29.80 in 2.5 mi NNW 11.5 mph 23.0 mph 0.01 in Snow Light Snow
5:53 AM 19.9 °F 7.3 °F 18.0 °F 92% 29.87 in 1.5 mi NNW 12.7 mph 20.7 mph 0.01 in Snow Light Snow
6:13 AM 19.9 °F 8.6 °F 18.0 °F 92% 29.81 in 2.0 mi NNW 10.4 mph - 0.01 in Snow Light Snow
6:27 AM 19.9 °F 9.3 °F 18.0 °F 92% 29.82 in 2.0 mi NW 9.2 mph - 0.05 in   Overcast
6:53 AM 19.9 °F 7.3 °F 17.1 °F 89% 29.89 in 10.0 mi NNW 12.7 mph 21.9 mph 0.05 in Snow Blowing Snow
7:25 AM 19.9 °F 7.9 °F 17.1 °F 89% 29.86 in 10.0 mi NNW 11.5 mph - N/A Snow Blowing Snow
7:53 AM 19.9 °F 7.9 °F 17.1 °F 89% 29.95 in 10.0 mi NW 11.5 mph 20.7 mph N/A Snow Blowing Snow
8:53 AM 21.0 °F 8.6 °F 18.0 °F 88% 29.96 in 3.0 mi NNW 12.7 mph - N/A   Overcast
9:53 AM 21.0 °F 8.6 °F 18.0 °F 88% 29.98 in 2.5 mi NW 12.7 mph - 0.00 in Snow Light Snow
10:14 AM 21.0 °F 7.1 °F 18.0 °F 88% 29.91 in 1.8 mi NNW 16.1 mph 23.0 mph 0.00 in Snow Light Snow
10:19 AM 21.0 °F 8.1 °F 17.1 °F 85% 29.92 in 2.0 mi NW 13.8 mph 23.0 mph 0.00 in Snow Light Snow
10:53 AM 21.0 °F 8.1 °F 17.1 °F 85% 29.99 in 2.5 mi NNW 13.8 mph 26.5 mph 0.00 in Snow Light Snow
11:43 AM 21.0 °F 6.2 °F 16.0 °F 81% 29.93 in 7.0 mi NNW 18.4 mph 25.3 mph 0.00 in Snow Light Snow
11:53 AM 21.0 °F 8.1 °F 16.0 °F 81% 30.00 in 6.0 mi NNW 13.8 mph 23.0 mph 0.00 in Snow Light Snow
12:51 PM 21.2 °F 8.3 °F 17.6 °F 86% 29.93 in 2.0 mi NNW 13.8 mph 21.9 mph 0.00 in Snow Light Snow
12:53 PM 21.0 °F 8.6 °F 17.1 °F 85% 30.00 in 2.0 mi NW 12.7 mph 21.9 mph 0.00 in Snow Light Snow
1:05 PM 21.9 °F 11.0 °F 16.0 °F 78% 29.94 in 7.0 mi NNW 10.4 mph 21.9 mph 0.00 in Snow Light Snow
1:29 PM 21.9 °F 11.0 °F 17.1 °F 82% 29.95 in 1.8 mi NW 10.4 mph - 0.00 in Snow Light Snow
1:39 PM 21.0 °F 7.6 °F 16.0 °F 81% 29.95 in 2.5 mi NNW 15.0 mph 23.0 mph 0.00 in Snow Light Snow
1:53 PM 19.9 °F 6.2 °F 15.1 °F 81% 30.03 in 1.5 mi NNW 15.0 mph 24.2 mph 0.00 in Snow Light Snow
2:12 PM 19.9 °F 7.9 °F 15.1 °F 81% 29.97 in 3.0 mi NNW 11.5 mph 23.0 mph 0.00 in Snow Light Snow
2:40 PM 19.9 °F 5.7 °F 14.0 °F 78% 29.98 in 2.5 mi NNW 16.1 mph 27.6 mph 0.00 in Snow Light Snow
2:49 PM 19.4 °F 5.0 °F 14.0 °F 80% 29.98 in 8.0 mi NNW 16.1 mph 24.2 mph 0.00 in Snow Light Snow
2:53 PM 19.9 °F 3.9 °F 12.9 °F 74% 30.05 in 6.0 mi NNW 20.7 mph 25.3 mph 0.00 in Snow Light Snow
3:05 PM 19.0 °F 6.1 °F 12.9 °F 77% 29.98 in 2.5 mi NW 12.7 mph 28.8 mph 0.00 in Snow Light Snow
3:16 PM 19.0 °F 2.4 °F 10.9 °F 71% 29.99 in 2.5 mi NNW 21.9 mph 31.1 mph 0.00 in   Scattered Clouds
3:42 PM 18.0 °F 2.6 °F 10.0 °F 71% 30.00 in 10.0 mi NNW 17.3 mph 25.3 mph 0.00 in   Partly Cloudy
3:53 PM 18.0 °F 4.2 °F 10.0 °F 71% 30.08 in 10.0 mi NNW 13.8 mph 21.9 mph 0.00 in   Partly Cloudy
4:53 PM 17.1 °F 3.0 °F 6.1 °F 62% 30.10 in 10.0 mi NNW 13.8 mph 24.2 mph N/A   Clear
5:53 PM 16.0 °F 3.6 °F 5.0 °F 62% 30.12 in 10.0 mi NNW 10.4 mph - N/A   Clear
6:53 PM 15.1 °F 5.2 °F 5.0 °F 64% 30.14 in 10.0 mi WNW 6.9 mph - N/A   Clear
7:53 PM 14.0 °F -0.2 °F 5.0 °F 67% 30.15 in 10.0 mi WNW 12.7 mph - N/A   Clear
8:53 PM 14.0 °F -0.2 °F 5.0 °F 67% 30.16 in 10.0 mi WNW 12.7 mph - N/A   Clear
9:53 PM 12.9 °F -0.9 °F 5.0 °F 71% 30.17 in 10.0 mi WNW 11.5 mph - N/A   Clear
10:53 PM 12.9 °F -2.2 °F 5.0 °F 71% 30.17 in 10.0 mi WNW 13.8 mph - N/A   Mostly Cloudy
11:09 PM 14.0 °F 0.5 °F 5.0 °F 67% 30.09 in 10.0 mi WNW 11.5 mph 24.2 mph N/A   Overcast
11:53 PM 12.9 °F -0.2 °F 7.0 °F 77% 30.18 in 10.0 mi WNW 10.4 mph - N/A   Overcast